Satellite: FO-70
Catalog number: 37380
Epoch time:      12046.50349291
Element set:    0106
Inclination:      071.9705 deg
RA of node:       223.0530 deg
Eccentricity:    0.0018152
Arg of perigee:   191.1227 deg
Mean anomaly:     168.9536 deg
Mean motion:   14.76682035 rev/day
Decay rate:       3.31e-06 rev/day^2
Epoch rev:           01787
Checksum:              285

/EX
SB KEPS @ AMSAT  $ORB12068.W
Orbital Elements  12068.WEATHER

HR AMSAT ORBITAL ELEMENTS FOR WEATHER SATELLITES
FROM WA5QGD FORT WORTH,TX March 8, 2012
Send SUBSCRIBE KEPS/UNSUBSCRIBE KEPS to majordomo at amsat.org only
BID: ORB12068.W
TO ALL RADIO AMATEURS BT

Satellite: NOAA-10
Catalog number: 16969
Epoch time:      12067.94995305
Element set:    0848
Inclination:      098.5938 deg
RA of node:       098.7555 deg
Eccentricity:    0.0012559
Arg of perigee:   167.0817 deg
Mean anomaly:     193.0686 deg
Mean motion:   14.27531687 rev/day
Decay rate:        9.7e-07 rev/day^2
Epoch rev:           32542
Checksum:              365

Satellite: NOAA-11
Catalog number: 19531
Epoch time:      12067.81329213
Element set:    0844
Inclination:      098.7345 deg
RA of node:       155.0953 deg
Eccentricity:    0.0011393
Arg of perigee:   149.5385 deg
Mean anomaly:     210.6464 deg
Mean motion:   14.14954140 rev/day
Decay rate:      -1.87e-06 rev/day^2
Epoch rev:           21017
Checksum:              292

Satellite: NOAA-12
Catalog number: 21263
Epoch time:      12067.97237122
Element set:    0343
Inclination:      098.7369 deg
RA of node:       090.0773 deg
Eccentricity:    0.0014448
Arg of perigee:   132.8509 deg
Mean anomaly:     227.3889 deg
Mean motion:   14.25480865 rev/day
Decay rate:        1.5e-07 rev/day^2
Epoch rev:           08213
Checksum:              306

Satellite: MET-3/5
Catalog number: 21655
Epoch time:      12067.88355211
Element set:    0354
Inclination:      082.5540 deg
RA of node:       223.7400 deg
Eccentricity:    0.0012795
Arg of perigee:   211.5409 deg
Mean anomaly:     148.4941 deg
Mean motion:   13.17033826 rev/day
Decay rate:        5.1e-07 rev/day^2
Epoch rev:           98856
Checksum:              294

Satellite: MET-2/21
Catalog number: 22782
Epoch time:      12067.70303292
Element set:    0358
Inclination:      082.5468 deg
RA of node:       113.0403 deg
Eccentricity:    0.0024200
Arg of perigee:   077.8504 deg
Mean anomaly:     282.5355 deg
Mean motion:   13.83676283 rev/day
Decay rate:        5.0e-08 rev/day^2
Epoch rev:           93513
Checksum:              283

Satellite: OKEAN-4
Catalog number: 23317
Epoch time:      12068.88301268
Element set:     825
Inclination:      082.5410 deg
RA of node:       124.9688 deg
Eccentricity:    0.0020585
Arg of perigee:   327.3845 deg
Mean anomaly:     032.6098 deg
Mean motion:   14.83617459 rev/day
Decay rate:      1.045e-05 rev/day^2
Epoch rev:           93993
Checksum:              326

Satellite: NOAA-14
Catalog number: 23455
Epoch time:      12067.92203529
Element set:    0827
Inclination:      098.8325 deg
RA of node:       152.6841 deg
Eccentricity:    0.0008568
Arg of perigee:   246.8045 deg
Mean anomaly:     113.2223 deg
Mean motion:   14.13880495 rev/day
Decay rate:        5.8e-07 rev/day^2
Epoch rev:           88648
Checksum:              322

Satellite: NOAA-15
Catalog number: 25338
Epoch time:      12067.60000508
Element set:    0177
Inclination:      098.6826 deg
RA of node:       055.5059 deg
Eccentricity:    0.0011363
Arg of perigee:   047.3467 deg
Mean anomaly:     312.8659 deg
Mean motion:   14.25036603 rev/day
Decay rate:        5.8e-07 rev/day^2
Epoch rev:           71838
Checksum:              305

Satellite: RESURS
Catalog number: 25394
Epoch time:      12067.95934195
Element set:    0041
Inclination:      098.3135 deg
RA of node:       061.5586 deg
Eccentricity:    0.0001420
Arg of perigee:   137.7572 deg
Mean anomaly:     222.3722 deg
Mean motion:   14.24276004 rev/day
Decay rate:        3.2e-07 rev/day^2
Epoch rev:           70999
Checksum:              287

Satellite: FENGYUN1
Catalog number: 25730
Epoch time:      12067.91247069
Element set:     553
Inclination:      098.8406 deg
RA of node:       028.7027 deg
Eccentricity:    0.0019364
Arg of perigee:   297.8250 deg
Mean anomaly:     062.0953 deg
Mean motion:   14.09291711 rev/day
Decay rate:      1.353e-05 rev/day^2
Epoch rev:           66034
Checksum:              301

Satellite: OKEAN-0
Catalog number: 25860
Epoch time:      12067.92156399
Element set:    0579
Inclination:      097.9234 deg
RA of node:       032.7138 deg
Eccentricity:    0.0000705
Arg of perigee:   095.4296 deg
Mean anomaly:     264.6993 deg
Mean motion:   14.74105007 rev/day
Decay rate:       5.28e-06 rev/day^2
Epoch rev:           67965
Checksum:              333

Satellite: NOAA-16
Catalog number: 26536
Epoch time:      12067.61716395
Element set:    0661
Inclination:      099.1085 deg
RA of node:       108.1124 deg
Eccentricity:    0.0010609
Arg of perigee:   013.9333 deg
Mean anomaly:     346.2132 deg
Mean motion:   14.12709113 rev/day
Decay rate:      -1.41e-06 rev/day^2
Epoch rev:           59069
Checksum:              279

Satellite: NOAA-17
Catalog number: 27453
Epoch time:      12067.87123964
Element set:    0626
Inclination:      098.3486 deg
RA of node:       099.9787 deg
Eccentricity:    0.0012724
Arg of perigee:   094.2260 deg
Mean anomaly:     266.0361 deg
Mean motion:   14.24399848 rev/day
Decay rate:        8.0e-08 rev/day^2
Epoch rev:           50433
Checksum:              336

Satellite: NOAA-18
Catalog number: 28654
Epoch time:      12067.92157822
Element set:    0103
Inclination:      099.0345 deg
RA of node:       025.2302 deg
Eccentricity:    0.0015162
Arg of perigee:   080.2969 deg
Mean anomaly:     279.9895 deg
Mean motion:   14.11615553 rev/day
Decay rate:       3.77e-06 rev/day^2
Epoch rev:           35027
Checksum:              308

Satellite: NOAA-19
Catalog number: 33591
Epoch time:      12067.69401595
Element set:    0291
Inclination:      098.8553 deg
RA of node:       008.7849 deg
Eccentricity:    0.0013541
Arg of perigee:   311.3380 deg
Mean anomaly:     048.6619 deg
Mean motion:   14.11301114 rev/day
Decay rate:        5.0e-08 rev/day^2
Epoch rev:           15869
Checksum:              302

/EX
SB KEPS @ AMSAT  $ORB12068.M
Orbital Elements  12068.MISC

HR AMSAT ORBITAL ELEMENTS FOR MANNED AND MISCELLANEOUS SATELLITES
FROM WA5QGD FORT WORTH,TX March 8, 2012
Send SUBSCRIBE KEPS/UNSUBSCRIBE KEPS to majordomo at amsat.org only
BID: ORB12068.M
TO ALL RADIO AMATEURS BT

Satellite: HUBBLE
Catalog number: 20580
Epoch time:      12068.28511873
Element set:     958
Inclination:      028.4699 deg
RA of node:       083.7260 deg
Eccentricity:    0.0003334
Arg of perigee:   068.9947 deg
Mean anomaly:     291.1075 deg
Mean motion:   15.02245874 rev/day
Decay rate:      1.749e-05 rev/day^2
Epoch rev:           99954
Checksum:              337

Satellite: ISS
Catalog number: 25544
Epoch time:      12068.80260505
Element set:     153
Inclination:      051.6406 deg
RA of node:       265.4244 deg
Eccentricity:    0.0017716
Arg of perigee:   134.9286 deg
Mean anomaly:     342.9388 deg
Mean motion:   15.58908139 rev/day
Decay rate:     1.7971e-04 rev/day^2
Epoch rev:           76236
Checksum:              318

Satellite: CO-58
Catalog number: 28895
Epoch time:      12068.58335821
Element set:     117
Inclination:      097.9315 deg
RA of node:       299.2012 deg
Eccentricity:    0.0018768
Arg of perigee:   106.2309 deg
Mean anomaly:     254.0982 deg
Mean motion:   14.60508883 rev/day
Decay rate:       7.65e-06 rev/day^2
Epoch rev:           33897
Checksum:              347

Satellite: FALCON
Catalog number: 30776
Epoch time:      12067.70517199
Element set:    0318
Inclination:      035.4321 deg
RA of node:       176.3304 deg
Eccentricity:    0.0002063
Arg of perigee:   230.9842 deg
Mean anomaly:     129.0692 deg
Mean motion:   15.06766555 rev/day
Decay rate:      4.034e-05 rev/day^2
Epoch rev:           27493
Checksum:              290

Satellite: MAST
Catalog number: 31126
Epoch time:      12067.58859055
Element set:     402
Inclination:      097.8792 deg
RA of node:       084.6209 deg
Eccentricity:    0.0095166
Arg of perigee:   067.4177 deg
Mean anomaly:     293.7048 deg
Mean motion:   14.54052479 rev/day
Decay rate:       6.30e-06 rev/day^2
Epoch rev:           25950
Checksum:              323

Satellite: CAPE1
Catalog number: 31130
Epoch time:      12068.50244326
Element set:     414
Inclination:      097.8857 deg
RA of node:       081.9298 deg
Eccentricity:    0.0102959
Arg of perigee:   076.9724 deg
Mean anomaly:     284.2933 deg
Mean motion:   14.52794403 rev/day
Decay rate:       5.27e-06 rev/day^2
Epoch rev:           25915
Checksum:              318

Satellite: COMPASS
Catalog number: 32787
Epoch time:      12068.65757036
Element set:     243
Inclination:      097.8120 deg
RA of node:       132.1927 deg
Eccentricity:    0.0015913
Arg of perigee:   033.5637 deg
Mean anomaly:     326.6635 deg
Mean motion:   14.83586585 rev/day
Decay rate:      1.978e-05 rev/day^2
Epoch rev:           20890
Checksum:              326

Satellite: AAUSAT2
Catalog number: 32788
Epoch time:      12067.83870776
Element set:    0235
Inclination:      097.8142 deg
RA of node:       131.7188 deg
Eccentricity:    0.0015385
Arg of perigee:   038.5879 deg
Mean anomaly:     321.6416 deg
Mean motion:   14.83868159 rev/day
Decay rate:      1.808e-05 rev/day^2
Epoch rev:           20880
Checksum:              343

